Showing default

GALAXY 32, 54244

Orbit data source: Space-Track

GALAXY 32, 54244 is a payload satellite owned by Intelsat SA (US) (US) in GEO that was launched on Sat, 12 Nov 2022 UTC via an FALCON 9 launch vehicle from the Air Force Eastern Test Range (AFETR). Payload-class satellites include a variety of spacecraft equipped with specific instruments for various scientific and technological missions. These include communications satellites like Starlink; space stations such as the ISS; scientific satellites like the Hubble; Earth observation satellites from companies like Planet Labs, Umbra, and HawkEye 360; GPS; miniature CubeSats for education and research; and military/defense satellites.

Loading next visibility...
Identifier
54244, 2022-153B
Orbit
GEO
Last TLE update
1 day ago
Origin
Manufacturer
Maxar Space Sol
Mission
Operational Commercial Communications
Bus & Motor
SSL-1300, R-4D
Mass
3,300 kg wet, ~2,000 kg dry
Launch date (UTC)
2022-11-12 (2 years ago)
Launch vehicle
FALCON 9
Launch site
Air Force Eastern Test Range (AFETR)
Object type
Payload
Rocket body
Debris
Shape & HBR
Box + 2 Pan, 27 m
Radar Cross Section
36.085 m², Large (>1 m²)

Expand to show TLE details & history

TLE from 1 day ago
0 GALAXY 32
1 54244U 22153B   25119.15385315 -.00000175  00000-0  00000+0 0  9994
2 54244   0.0161 290.8864 0002694  86.5319 164.3315  1.00271563  9017
Epoch: 2025-04-29T03:41Z
Definitive object data (Epoch: 2025-04-29T03:41:32.912Z)
Latitude
-0.03683°
Longitude
-90.99069°
Altitude
35,797.119 km
Speed
3.074 km/s
True Right ascension
12h 07m 00s
True Declination
0° 02' 12"
Sunlit
Object was in daylight at TLE epoch
Visualization TLE readout
Latitude
0.00024°
Longitude
8.65231°
Altitude
35,787.448 km
Speed
3.075 km/s
Apparent Right ascension
18h 52m 53s
Apparent Declination
-6° 12' 22"
Sunlit
Object is in daylight
Visualization observer readout
Local Sidereal Time
17:49:13
Azimuth
158.619° S
Elevation
41.597°
Doppler factor
1
Orbital elements
Apogee altitude
35,799.087 km
Perigee altitude
35,776.368 km
Semi-major axis
42,165.865 km
Eccentricity
0.0002694
Inclination
0.0161°
RAAN
290.8864°
Arg. of periapsis
86.5319°
True anomaly
164.33983°
Mean anomaly
164.3315°
Eccentric anomaly
164.33567°
Mean motion
0.25067 °/min
BSTAR
Unknown
Orbital period
1436.15 mins
Loading historical data...
54244 neighbors
Loading maneuver chart data...
Loading SW <> Apogee altitude chart data...
Loading historical data...
Loading historical data...
Loading historical data...
Loading historical data...
Loading historical data...
Loading historical data...
Loading historical data...
Other satellites on launch #153 in the year 2022 (2022-11-12 UTC)

GALAXY 32 Visibility forecast

Observer location: undefined°, undefined°

Span
Click to sort rows by Start time (UTC) header in descending order
Start Az.
Max El. time (UTC)
Max El. Az.
Max El.
End time (UTC)
End Az.
1440 mins2025-04-30 10:15:14.772Z158.627° S2025-04-30 16:12:14.772Z158.574° S33.585°2025-05-01 10:15:14.772Z158.625° S
|